Regional Weather Roundup
Issued by NWS Kansas City/Pleasant Hill, MO

Home | Current Version | Previous Version | Text Only | Print | Product List | Glossary On
Versions: 1 2 3 4 5 6 7 8 9 10 11 12 13 14 15 16 17 18 19 20 21 22 23 24 25 26 27
000
ASUS43 KEAX 031810
RWREAX

WEATHER ROUNDUP FOR EASTERN KANSAS AND NORTHWEST MISSOURI
NATIONAL WEATHER SERVICE KANSAS CITY/PLEASANT HILL MO
100 PM CDT TUE MAY 03 2016

KSZ040-057-103>105-MOZ028-029-037-043-031900-
...KANSAS CITY METROPOLITAN AREA...

CITY           SKY/WX    TMP DP  RH WIND       PRES   REMARKS
K.C. INTL      PTSUNNY   66  43  43 SW8       30.06F
6HR MIN TEMP:  44; 6HR MAX TEMP:  66;

K.C. DOWNTOWN  PTSUNNY   65  40  39 VRB5      30.05F
6HR MIN TEMP:  44; 6HR MAX TEMP:  68;

LEES SUMMIT    MOSUNNY   66  41  40 CALM      30.06F
6HR MIN TEMP:  44; 6HR MAX TEMP:  66;

OLATHE - IXD   MOSUNNY   63  38  39 CALM      30.07F
6HR MIN TEMP:  43; 6HR MAX TEMP:  65;

OLATHE - OJC   PTSUNNY   63  40  42 SW9       30.07F
6HR MIN TEMP:  45; 6HR MAX TEMP:  65;

LAWRENCE       SUNNY     66  39  37 CALM      30.07F

$$

MOZ001>008-011>017-020>025-030>033-038>040-044>046-053-054-031900-
...NORTHERN AND CENTRAL MISSOURI...

CITY           SKY/WX    TMP DP  RH WIND       PRES   REMARKS
ST. JOSEPH     PTSUNNY   66  40  38 SW10      30.05F
6HR MIN TEMP:  42; 6HR MAX TEMP:  66;

MOSBY          MOCLDY    63  37  39 NW6       30.06F
WARRENSBURG    SUNNY     64  39  39 NW6       30.06
WHITEMAN AFB   MOSUNNY   63  43  48 N8        30.05F
6HR MIN TEMP:  42; 6HR MAX TEMP:  64;

CLINTON        MOSUNNY   64  43  45 W6        30.07F
SEDALIA        MOSUNNY   65  45  48 NW9       30.07F
6HR MIN TEMP:  46; 6HR MAX TEMP:  65;

WARSAW         NOT AVBL
CHILLICOTHE      N/A     65  44  46 NW9       30.04F
6HR MIN TEMP:  41; 6HR MAX TEMP:  67;

KIRKSVILLE     PTSUNNY   66  36  32 MISG      30.03F
6HR MIN TEMP:  43; 6HR MAX TEMP:  66;


$$

MOZ041-047>049-056>058-063>065-088>090-097-031900-
...EASTERN AND SOUTHERN MISSOURI...

CITY           SKY/WX    TMP DP  RH WIND       PRES   REMARKS
ST. LOUIS INTL PTSUNNY   62  43  49 NW8       30.02F
6HR MIN TEMP:  53; 6HR MAX TEMP:  64;

SPIRIT OF STL  PTSUNNY   62  46  55 NW7       30.02F
COLUMBIA       MOSUNNY   61  45  55 NW7       30.05F
JEFFERSON CITY MOSUNNY   62  45  53 NW8       30.04F
ROLLA          PTSUNNY   60  46  59 NW6       30.03F
OSAGE BEACH    PTSUNNY   63  39  42 W5        30.06F
SPRINGFIELD    MOSUNNY   61  41  47 MISG      30.07F
BRANSON        PTSUNNY   63  39  42 N12       30.08F
JOPLIN         SUNNY     64  40  41 CALM      30.09F
WEST PLAINS    PTSUNNY   61  43  51 MISG      30.05F

$$

IAZ060-094-KSZ022-034>040-054-083-096-NEZ052-066-093-031900-
...KANSAS...SOUTHEAST NEBRASKA AND IOWA...

CITY           SKY/WX    TMP DP  RH WIND       PRES   REMARKS
TOPEKA         MOSUNNY   66  40  38 MISG      30.06F
6HR MIN TEMP:  39; 6HR MAX TEMP:  67; 6HR PCP: TRACE;

MANHATTAN      SUNNY     69  40  34 CALM      30.05F
EMPORIA        SUNNY     66  41  40 SW8       30.06F
CHANUTE        SUNNY     66  43  43 VRB3      30.08F
WICHITA        MOSUNNY   68  46  45 S12       30.06F
OMAHA          MOSUNNY   67  41  38 W6        30.02F
LINCOLN        SUNNY     67  39  35 VRB3      30.05F
FALLS CITY     PTSUNNY   67  43  41 MISG      30.04F
LAMONI         PTSUNNY   63  43  48 W12       30.02F
DES MOINES     MOSUNNY   68  38  33 W10       29.99F

$$





USA.gov is the U.S. government's official web portal to all federal, state and local government web resources and services.